Location: Piotrkow Trybunalski
(51.4000°N, 19.6830°E)
Time: 09:50:27
(UTC+01:00)

BlueWalker 3 - Pass Details

Date: 07 December 2022
Orbit: 499 x 517 km, 53.2° (Epoch: 29 January)

Event Time Altitude Azimuth Distance (km) Brightness Sun altitude
Rises 18:42:25 0° 289° (WNW) 2,628 6.6 -28.2°
Reaches altitude 10° 18:44:47 10° 279° (W) 1,734 5.6 -28.6°
Enters shadow 18:47:16 27° 245° (WSW) 1,015 4.0 -29.0°
